User: anonymous   Login
Location: Civry
(47.2902°N, 4.6156°E)
Time: 17:34:58
(UTC+00:00)
Language:

STARLINK-1199 - Orbit

View from above orbital plane
View from above orbital plane
View from above satellite
View from above satellite

Ground track
Ground track

The orbit data is extracted from the following two-line orbital elements,

1 45201U 20012Z   20195.83334491 -.00032663  00000-0 -22322-2 0  9994
2 45201  52.9984 296.1221 0001432  85.5389 133.7612 15.05590917 22966
Epoch (UTC): 13 July 2020 20:00:01
Eccentricity: 0.0001432
inclination: 52.9984°
perigee height: 549 km
apogee height: 550 km
right ascension of ascending node: 296.1221°
argument of perigee: 85.5389°
revolutions per day: 15.05590917
mean anomaly at epoch: 133.7612°
orbit number at epoch: 2296

The dashed part of the orbit path shows where the satellite is in the earth's shadow,  

DLR